Content
SEND FEEDBACK

Daily
Averages
Monthly
Summary
Algeria

ILLIZI, ALGERIA


Home > Africa > Algeria
Elevation: 577 meters     Latitude: 26 30N     Longitude: 008 25E

WEATHER
 
SELECT A DAY
Number of Records: 117,301;   Date Range: 9/26/01 - 12/27/14
 
SHARE

PRINT THIS DATA

[ ← Previous Day ]
WEATHER ALMANAC - 31 JANUARY, 2013
[ Next Day → ]
[ °F ]   °C
Weather ElementAverageHighLow
Temperature13.2 °C20 °C (1:00 pm)4 °C (7:00 am)
Dewpoint2.6 °C5 °C (10:00 am)-2 °C (6:00 am)
Humidity49.2 %81 % (4:00 am)21 % (4:00 pm)
Barometer1029.8 hPa1032.2 hPa (10:00 am)1028.1 hPa (4:00 pm)
Wind Speed3.4 km/h18.5 km/h (5:00 pm)
Weather ElementAverage
Visibility8.9 km
Wind DirectionNE (48.3 °)

Weather ElementTotal
Precipitation---
Heating Degree Days6.3 (Base 18.3)
Growing Degree Days2 (Base 10)
Averaged from 29 records on 31 January, 2013
WEATHER CONDITIONS BREAKOUT
WIND DIRECTION BREAKOUT
WEATHER BY HOUR - 31 JANUARY, 2013
[ °F ]   °C
Local TimeTemperatureDewpointHumidityBarometerVisibilityWind DirectionWind SpeedGust SpeedPrecipitationEventsConditions
1:00 AM7.8 °C3.3 °C66 %1030.5 hPa8 kmCalm
1:00 AM8 °C4 °C76 %1030.1 hPa8 kmCalm
2:00 AM7 °C3 °C76 %1030.1 hPa8 kmCalm
4:00 AM6.1 °C2.2 °C70 %1030.5 hPa8 kmCalm
4:00 AM6 °C3 °C81 %1030.1 hPa8 kmCalm
6:00 AM5 °C-2 °C61 %1030.1 hPa8 kmCalm
7:00 AM4 °C0 °C75 %1031.2 hPaCalmClear
7:00 AM4.4 °C0 °C65 %1031.5 hPa9.7 kmCalm
8:00 AM5 °C0 °C70 %1031.2 hPaCalmClear
9:00 AM10 °C4 °C66 %1031.2 hPaCalmClear
10:00 AM12.8 °C4.4 °C46 %1032.2 hPa9.7 kmSE (140°)14.8 km/h
10:00 AM13 °C5 °C58 %1031.2 hPaSE (140°)14.8 km/hClear
11:00 AM16 °C3 °C42 %1031.2 hPaCalmClear
12:00 PM18 °C4 °C40 %1031.2 hPaCalmClear
1:00 PM20 °C4 °C35 %1031.2 hPaCalmClear
1:00 PM19.4 °C4.4 °C26 %1030.8 hPa9.7 kmCalm
2:00 PM20 °C5 °C37 %1029.1 hPaNorth (360°)3.7 km/hClear
3:00 PM20 °C4 °C35 %1029.1 hPaNorth (360°)7.4 km/hClear
4:00 PM19.4 °C2.2 °C21 %1029.1 hPa9.7 kmNorth (10°)7.4 km/h
4:00 PM20 °C3 °C33 %1028.1 hPaNorth (10°)7.4 km/hClear
5:00 PM19 °C2 °C32 %1028.1 hPaNE (50°)18.5 km/hClear
6:00 PM18 °C2 °C34 %1028.1 hPaNNE (30°)7.4 km/hClear
7:00 PM18 °C1 °C32 %1028.1 hPaNNE (30°)7.4 km/hClear
7:00 PM17.8 °C1.7 °C22 %1028.8 hPa9.7 kmNNE (30°)7.4 km/h
8:00 PM17 °C2 °C37 %1029.1 hPaCalmClear
9:00 PM16 °C1 °C36 %1029.1 hPaCalmClear
10:00 PM12.2 °C3.3 °C42 %1029.8 hPa9.7 kmCalm
10:00 PM12 °C3 °C54 %1029.1 hPaCalmClear
11:00 PM11 °C3 °C58 %1029.1 hPaCalmClear
Hourly data recorded from DAAP, located 0 kilometers away from Illizi, Algeria







STORIES FROM OUR PARTNERS